When you browse on this site, cookies collect data to enhance your experience and personalize the content and advertising you see.
Visit our Privacy Policy to learn more. By continuing to use the site, you agree to this use of cookies and data.
  • In United Kingdom
  • List of Countries
  • For 7 days
  • Water Temperature
  • Satellite Maps
  • Weather Map
  • Weather Widgets
  • user-avatar
    Login

    Hourly Weather Ali Sabieh

    Today, 19 May, Sunday

    Time Temperature Precipitation Wind Pressure Humidity
    00:00 +30°C° 1.6 mm 4 mps 695 mmHg 67%
    01:00 +30°C° 1.1 mm 4 mps 695 mmHg 68%
    02:00 +29°C° 1.1 mm 4 mps 694 mmHg 70%
    03:00 +29°C° 0 mm 4 mps 694 mmHg 71%
    04:00 +29°C° 0.9 mm 4 mps 695 mmHg 71%
    05:00 +28°C° 0.9 mm 3 mps 695 mmHg 71%
    06:00 +28°C° 0.9 mm 3 mps 695 mmHg 71%
    07:00 +29°C° 0.5 mm 3 mps 695 mmHg 66%
    08:00 +30°C° 0.5 mm 3 mps 696 mmHg 61%
    09:00 +31°C° 0 mm 3 mps 696 mmHg 55%
    10:00 +33°C° 0 mm 3 mps 696 mmHg 51%
    11:00 +35°C° 0 mm 3 mps 696 mmHg 46%
    12:00 +36°C° 0 mm 3 mps 696 mmHg 41%
    13:00 +36°C° 0 mm 3 mps 696 mmHg 40%
    14:00 +37°C° 0 mm 4 mps 695 mmHg 39%
    15:00 +38°C° 0 mm 4 mps 695 mmHg 37%
    16:00 +36°C° 0 mm 5 mps 694 mmHg 42%
    17:00 +35°C° 0 mm 6 mps 694 mmHg 47%
    18:00 +34°C° 0 mm 7 mps 694 mmHg 52%
    19:00 +33°C° 0.2 mm 6 mps 694 mmHg 57%
    20:00 +32°C° 0.2 mm 5 mps 694 mmHg 61%
    21:00 +30°C° 0.2 mm 5 mps 694 mmHg 65%
    22:00 +30°C° 0 mm 5 mps 695 mmHg 66%
    23:00 +30°C° 0 mm 5 mps 695 mmHg 68%

    Tomorrow, 20 May, Monday

    Time Temperature Precipitation Wind Pressure Humidity
    00:00 +30°C° 0 mm 5 mps 695 mmHg 69%
    01:00 +29°C° 1.3 mm 4 mps 695 mmHg 69%
    02:00 +29°C° 1.3 mm 4 mps 695 mmHg 70%
    03:00 +28°C° 1.3 mm 3 mps 695 mmHg 71%
    04:00 +28°C° 1.6 mm 3 mps 695 mmHg 69%
    05:00 +28°C° 1.6 mm 2 mps 696 mmHg 68%
    06:00 +28°C° 1.6 mm 2 mps 696 mmHg 66%
    07:00 +29°C° 0.1 mm 2 mps 697 mmHg 64%
    08:00 +29°C° 0.1 mm 2 mps 697 mmHg 62%
    09:00 +29°C° 0.1 mm 3 mps 698 mmHg 59%
    10:00 +30°C° 0 mm 3 mps 698 mmHg 56%
    11:00 +31°C° 0 mm 3 mps 697 mmHg 53%
    12:00 +31°C° 0 mm 3 mps 697 mmHg 50%
    13:00 +33°C° 0 mm 3 mps 697 mmHg 47%
    14:00 +32°C° 0 mm 2 mps 696 mmHg 45%
    15:00 +34°C° 0 mm 2 mps 696 mmHg 43%
    16:00 +34°C° 0 mm 2 mps 696 mmHg 43%
    17:00 +33°C° 0 mm 1 mps 695 mmHg 43%
    18:00 +33°C° 0 mm 1 mps 695 mmHg 43%
    19:00 +32°C° 0 mm 1 mps 695 mmHg 48%
    20:00 +31°C° 0 mm 2 mps 696 mmHg 53%
    21:00 +31°C° 0 mm 2 mps 696 mmHg 58%
    22:00 +30°C° 1 mm 2 mps 696 mmHg 62%
    23:00 +30°C° 1 mm 2 mps 696 mmHg 67%

    Day after tomorrow, 21 May, Tuesday

    Time Temperature Precipitation Wind Pressure Humidity
    00:00 +29°C° 1 mm 2 mps 696 mmHg 72%
    01:00 +29°C° 0.8 mm 2 mps 696 mmHg 72%
    02:00 +29°C° 0.8 mm 2 mps 695 mmHg 72%
    03:00 +29°C° 0.8 mm 1 mps 695 mmHg 72%
    04:00 +28°C° 1 mm 1 mps 695 mmHg 73%
    05:00 +28°C° 1 mm 2 mps 696 mmHg 74%
    06:00 +28°C° 1 mm 2 mps 696 mmHg 75%
    07:00 +29°C° 1.3 mm 2 mps 696 mmHg 69%
    08:00 +30°C° 1.3 mm 3 mps 697 mmHg 64%
    09:00 +32°C° 1.3 mm 4 mps 698 mmHg 59%
    10:00 +33°C° 0.8 mm 4 mps 698 mmHg 55%
    11:00 +34°C° 0.8 mm 4 mps 698 mmHg 51%
    12:00 +35°C° 0.8 mm 5 mps 698 mmHg 48%
    13:00 +35°C° 0.3 mm 5 mps 697 mmHg 47%
    14:00 +35°C° 0.3 mm 5 mps 696 mmHg 46%
    15:00 +35°C° 0.3 mm 6 mps 695 mmHg 46%
    16:00 +35°C° 0 mm 6 mps 695 mmHg 49%
    17:00 +34°C° 0 mm 6 mps 695 mmHg 53%
    18:00 +33°C° 0 mm 6 mps 695 mmHg 57%
    19:00 +32°C° 0 mm 5 mps 696 mmHg 60%
    20:00 +30°C° 0 mm 5 mps 696 mmHg 63%
    21:00 +30°C° 0 mm 4 mps 696 mmHg 66%
    22:00 +29°C° 0.7 mm 5 mps 696 mmHg 68%
    23:00 +29°C° 0.7 mm 5 mps 696 mmHg 70%

    22 May, Wednesday

    Time Temperature Precipitation Wind Pressure Humidity
    00:00 +29°C° 0.7 mm 5 mps 696 mmHg 72%
    01:00 +29°C° 0.6 mm 5 mps 696 mmHg 71%
    02:00 +28°C° 0.6 mm 5 mps 696 mmHg 71%
    03:00 +28°C° 0.6 mm 4 mps 696 mmHg 71%
    04:00 +28°C° 0.3 mm 4 mps 696 mmHg 72%
    05:00 +28°C° 0.3 mm 4 mps 696 mmHg 73%
    06:00 +28°C° 0.3 mm 3 mps 696 mmHg 74%
    07:00 +28°C° 0.2 mm 4 mps 697 mmHg 70%
    08:00 +29°C° 0.2 mm 5 mps 698 mmHg 66%
    09:00 +30°C° 0.2 mm 5 mps 698 mmHg 61%
    10:00 +32°C° 1.3 mm 5 mps 698 mmHg 58%
    11:00 +33°C° 1.3 mm 5 mps 698 mmHg 55%
    12:00 +33°C° 1.3 mm 5 mps 698 mmHg 51%
    13:00 +34°C° 0.8 mm 5 mps 697 mmHg 51%
    14:00 +34°C° 0.8 mm 5 mps 696 mmHg 51%
    15:00 +34°C° 0.8 mm 5 mps 696 mmHg 51%
    16:00 +33°C° 0.1 mm 5 mps 696 mmHg 56%
    17:00 +32°C° 0.1 mm 5 mps 696 mmHg 61%
    18:00 +30°C° 0.1 mm 6 mps 696 mmHg 65%
    19:00 +30°C° 1.4 mm 5 mps 696 mmHg 66%
    20:00 +30°C° 1.4 mm 4 mps 696 mmHg 66%
    21:00 +30°C° 1.4 mm 3 mps 697 mmHg 67%
    22:00 +29°C° 1.8 mm 3 mps 697 mmHg 67%
    23:00 +29°C° 1.8 mm 3 mps 697 mmHg 68%

    23 May, Thursday

    Time Temperature Precipitation Wind Pressure Humidity
    00:00 +29°C° 1.8 mm 3 mps 697 mmHg 69%
    01:00 +28°C° 1.8 mm 3 mps 696 mmHg 69%
    02:00 +28°C° 1.8 mm 3 mps 696 mmHg 69%
    03:00 +28°C° 1.8 mm 3 mps 696 mmHg 70%
    04:00 +28°C° 0.8 mm 3 mps 696 mmHg 70%
    05:00 +28°C° 0.8 mm 3 mps 696 mmHg 70%
    06:00 +28°C° 0.8 mm 3 mps 697 mmHg 70%
    07:00 +28°C° 0.1 mm 4 mps 697 mmHg 66%
    08:00 +29°C° 0.1 mm 5 mps 698 mmHg 63%
    09:00 +30°C° 0.1 mm 5 mps 699 mmHg 60%
    10:00 +32°C° 0.2 mm 6 mps 698 mmHg 57%
    11:00 +32°C° 0.2 mm 6 mps 698 mmHg 53%
    12:00 +33°C° 0.2 mm 6 mps 697 mmHg 50%
    13:00 +33°C° 0 mm 6 mps 697 mmHg 50%
    14:00 +33°C° 0 mm 6 mps 696 mmHg 50%
    15:00 +34°C° 0 mm 6 mps 695 mmHg 50%
    16:00 +33°C° 0 mm 6 mps 695 mmHg 53%
    17:00 +32°C° 0 mm 5 mps 695 mmHg 57%
    18:00 +30°C° 0 mm 5 mps 695 mmHg 61%
    19:00 +30°C° 0 mm 5 mps 696 mmHg 62%
    20:00 +29°C° 0 mm 4 mps 696 mmHg 63%
    21:00 +29°C° 0 mm 4 mps 696 mmHg 64%
    22:00 +29°C° 0 mm 4 mps 696 mmHg 66%
    23:00 +29°C° 0 mm 3 mps 696 mmHg 67%

    24 May, Friday

    Time Temperature Precipitation Wind Pressure Humidity
    00:00 +28°C° 0 mm 3 mps 696 mmHg 69%
    01:00 +28°C° 0 mm 3 mps 696 mmHg 72%
    02:00 +28°C° 0 mm 3 mps 696 mmHg 75%
    03:00 +27°C° 0 mm 3 mps 695 mmHg 78%
    04:00 +27°C° 0.4 mm 3 mps 696 mmHg 79%
    05:00 +27°C° 0.4 mm 3 mps 696 mmHg 80%
    06:00 +27°C° 0.4 mm 3 mps 697 mmHg 81%
    07:00 +28°C° 0.1 mm 3 mps 697 mmHg 73%
    08:00 +29°C° 0.1 mm 4 mps 698 mmHg 66%
    09:00 +30°C° 0.1 mm 5 mps 699 mmHg 58%
    10:00 +32°C° 0 mm 5 mps 698 mmHg 53%
    11:00 +33°C° 0 mm 5 mps 698 mmHg 48%
    12:00 +35°C° 0 mm 5 mps 698 mmHg 43%
    13:00 +35°C° 0 mm 6 mps 697 mmHg 42%
    14:00 +35°C° 0 mm 6 mps 697 mmHg 40%
    15:00 +36°C° 0 mm 7 mps 696 mmHg 39%
    16:00 +35°C° 0 mm 7 mps 696 mmHg 44%
    17:00 +34°C° 0 mm 7 mps 696 mmHg 49%
    18:00 +33°C° 0 mm 7 mps 696 mmHg 53%
    19:00 +32°C° 0 mm 6 mps 696 mmHg 54%
    20:00 +32°C° 0 mm 5 mps 696 mmHg 55%
    21:00 +30°C° 0 mm 4 mps 697 mmHg 56%
    22:00 +30°C° 0 mm 4 mps 697 mmHg 58%
    23:00 +29°C° 0 mm 4 mps 697 mmHg 59%
    Show more